Location: Newark
(31.0436°N, 112.2008°E)
Time: 13:28:31
(UTC+00:00)

LightSail 2 - Visible Passes

Search period start: 24 January 2020 00:00
Search period end: 03 February 2020 00:00
Orbit: 704 x 719 km, 24.0° (Epoch: 24 January)

Date Brightness Start Highest point End Pass type
(mag) Time Alt. Az. Time Alt. Az. Time Alt. Az.
24 Jan 6.4 11:39:33 10° WSW 11:44:10 33° S 11:45:57 26° SSE visible
25 Jan 6.4 10:41:07 10° WSW 10:45:48 36° S 10:50:32 10° ESE visible
25 Jan 7.0 12:26:51 10° WSW 12:30:16 22° SSW 12:30:16 22° SSW visible
26 Jan 6.8 11:28:12 10° WSW 11:32:32 27° SSW 11:35:40 16° SE visible
27 Jan 6.7 10:29:39 10° WSW 10:34:11 31° S 10:38:43 10° SE visible
27 Jan 7.3 12:16:01 10° WSW 12:19:09 16° SSW 12:20:08 16° S visible
28 Jan 7.3 11:17:04 10° WSW 11:20:50 20° SSW 11:24:36 10° SSE visible
29 Jan 7.9 12:06:42 10° SSW 12:07:23 10° SSW 12:08:04 10° SSW visible
30 Jan 7.7 11:06:25 10° SW 11:09:03 14° SSW 11:11:42 10° S visible
